Location: Unspecified
(49.9820°N, 20.4363°E)
Time: 06:24:04
(UTC+02:00)

Explorer 11/Cluster Stage 4 - All Passes

Search period start: 14 May 2026 00:00
Search period end: 24 May 2026 00:00
Orbit: 463 x 1174 km, 28.8° (Epoch: 13 May)

Date Brightness Start Highest point End Pass type
(mag) Time Alt. Az. Time Alt. Az. Time Alt. Az.
17 May - 22:46:57 10° S 22:47:55 10° S 22:48:52 10° S visible
18 May - 22:21:08 10° SSW 22:23:03 11° S 22:24:54 10° SSE visible
19 May - 21:55:40 10° SSW 21:58:09 12° S 22:00:33 10° SSE visible
19 May - 23:43:59 10° SSW 23:44:36 10° SSW 23:45:13 10° S visible
20 May - 21:30:21 10° SSW 21:33:14 12° S 21:36:01 10° SSE visible
20 May - 23:18:03 10° SSW 23:19:43 11° SSW 23:21:21 10° S visible
21 May - 21:05:09 10° SSW 21:08:17 13° S 21:11:22 10° SSE visible
21 May - 22:52:35 10° SSW 22:54:49 11° SSW 22:56:59 10° S visible
22 May - 20:40:02 10° SSW 20:43:20 13° S 20:46:36 10° SSE daylight
22 May - 22:27:18 10° SSW 22:29:54 12° S 22:32:26 10° S visible
23 May - 20:15:00 10° SSW 20:18:22 13° S 20:21:44 10° SSE daylight
23 May - 22:02:06 10° SSW 22:04:57 12° S 22:07:45 10° SSE visible
